www.pogodaiklimat.ru

Погода и климат >> Архив погоды >> Россия >> Томская область >> Ванжиль-Кынак


АРХИВ ПОГОДЫ в Ванжиль-Кынаке

Время (UTC), дата Ветер
(напр.,м/с)
 
Видим.   Явления Облачность Т
(С)
Тd
(С)
f
(%)
Тe
(С)
Тes
(С)
Комфортность P
(гПа)
Po
(гПа)
Тmin
(С)
Tmax
(С)
R
(мм)
R24
(мм)
S
(см)
03 10.09 С 3 10 км слаб. морось 10/10 200 м
[St]
+7.6 +6.3 91 +5 +5 1014.5 1002.4
06 10.09 С 2 10 км в посл. час морось {ливн. осадки} 10/10 300 м
[Cb cap]
+8.5 +5.2 80 +7 +7 1014.5 1002.4
09 10.09 З 1 10 км 8/8 600 м
[Sc]
+9.4 +3.9 68 +9 +10 1013.9 1001.9
12 10.09 З 1 10 км 4/4 600 м
[Sc]
+8.6 +3.0 68 +8 +8 1013.1 1001.0 +10.2 0.4
15 10.09 ЮЗ 1 10 км 3/1 600 м
[Sc diur, vesp Ac trans]
+3.4 +2.1 91 +2 +2 1013.9 1001.6
18 10.09 штиль 0 10 км 4/3 600 м
[Sc diur, vesp Ac trans Ci fib]
+2.6 +1.5 92 +1 +1 1011.7 999.3
21 10.09 Ю 1 10 км 3/3 600 м
[Sc diur, vesp]
+2.6 +1.3 91 +1 +1 1009.9 997.6
00 11.09 Ю 1 10 км 8/6 600 м
[Sc Ac trans]
+2.8 +1.8 93 +1 +1 1009.7 997.4 +2.6
03 11.09 СЗ 1 4000 м слаб. ливневой дождь 10/10 300 м
[Frnb]
+5.0 +3.2 88 +4 +4 1009.8 997.6
06 11.09 З 2 10 км {ливн. осадки} 10/10 300 м
[Cb cap]
+7.2 +4.2 81 +5 +5 1010.5 998.4
09 11.09 С 3 10 км 6/6 300 м
[Cb cap]
+7.6 +2.3 69 +5 +6 1012.7 1000.5
12 11.09 С 5
{11}
10 км 10/10 600 м
[Cb cap]
+5.1 -2.4 58 +1 +1 1015.0 1002.7 +8.6 0.0
15 11.09 С 5
{10}
50 км 3/3 300 м
[Sc diur, vesp Ac trans]
+3.8 -1.8 67 -1 -1 1015.0 1002.7
18 11.09 С 5
{13}
50 км 4/4 300 м
[Sc Ac trans]
+1.8 -1.6 78 -4 -4 1015.3 1002.9
21 11.09 З 5
{13}
50 км 3/3 300 м
[Sc diur, vesp]
0.0 -0.9 94 -6 -6 1015.5 1003.0
00 12.09 З 6
{12}
10 км ясно -1.2 -1.8 96 -8 -8 1016.2 1003.6 -1.2 0.0
03 12.09 З 4
{12}
10 км 1/1 1000 м
[Sc]
+3.1 -2.3 68 -1 0 1016.2 1003.8
06 12.09 З 4
{10}
10 км 3/3 600 м
[Sc]
+7.4 -3.0 48 +5 +7 1015.3 1003.1
09 12.09 З 5
{11}
10 км 4/4 600 м
[Cu med, cong]
+7.9 -5.0 40 +5 +6 1014.0 1001.9
12 12.09 С 3
{11}
10 км 1/1 600 м
[Sc]
+4.8 -0.2 70 +2 +2 1014.0 1001.7 +7.9
15 12.09 штиль 0 50 км 1/1 600 м
[Sc diur, vesp]
-1.4 -3.6 85 -3 -3 1014.9 1002.3
18 12.09 штиль 0 50 км 3/1 600 м
[Sc diur, vesp Ac trans]
-2.8 -2.8 100 -4 -4 1015.2 1002.5
21 12.09 З 2 50 км 4/3 600 м
[Sc Ac trans]
-2.1 -3.0 94 -6 -6 1014.6 1002.0
00 13.09 СВ 1 10 км 9/9 600 м
[Sc]
+3.8 +2.8 93 +2 +2 1014.7 1002.4 -2.8
03 13.09 С 2 10 км 8/4 600 м
[Sc Ac und Cc]
+2.8 -5.2 56 0 +1 1014.6 1002.2
06 13.09 С 4
{10}
10 км 4/4 600 м
[Cu med, cong]
+8.2 -1.2 51 +5 +8 1013.6 1001.5
09 13.09 З 4
{11}
10 км 10/8 600 м
[Sc Ac trans]
+7.8 -0.7 55 +5 +5 1013.5 1001.4
12 13.09 З 2 10 км 10/8 600 м
[Sc Ac trans]
+7.2 +0.7 63 +5 +5 1013.6 1001.4 +8.2
15 13.09 З 2 50 км ясно +1.7 -0.8 83 -2 -2 1014.4 1002.0
18 13.09 штиль 0 50 км 5/0
[Ci fib]
-1.8 -2.7 94 -3 -3 1014.6 1002.0
21 13.09 Ю 1 50 км 10/10 600 м
[Sc]
-0.9 -1.5 96 -3 -3 1014.2 1001.6
00 14.09 Ю 1 4000 м слаб. ливневой дождь 10/10 300 м
[Cb cap]
+1.3 -1.9 79 -0 -0 1014.0 1001.5 -1.0 0.0
03 14.09 ЮВ 1 4000 м слаб. ливневой дождь 10/10 300 м
[Frnb]
+2.2 +1.7 96 0 0 1013.1 1000.7
06 14.09 ЮВ 1 4000 м слаб. ливневой дождь 10/10 300 м
[Frnb]
+3.2 +2.2 93 +2 +2 1010.7 998.3
09 14.09 ЮВ 1 4000 м слаб. морось 10/10 300 м
[St]
+3.6 +2.6 93 +2 +2 1011.4 999.1
12 14.09 Ю 1 10 км {ливн. осадки, морось} 10/10 600 м
[Sc]
+3.8 +2.8 93 +2 +2 1011.6 999.3 +4.2 3
15 14.09 штиль 0 50 км 10/10 600 м
[Sc]
+3.6 +2.9 95 +2 +2 1011.3 999.0
18 14.09 штиль 0 50 км 10/10 600 м
[Sc]
+3.3 +2.8 97 +2 +2 1011.6 999.2
21 14.09 С 1 50 км 10/10 600 м
[Sc]
+2.7 +1.9 94 +1 +1 1011.7 999.3
00 15.09 штиль 0 10 км 10/8 600 м
[Sc Ac trans]
+2.8 +1.8 93 +2 +2 1012.2 999.8 +2.4
03 15.09 СВ 1 10 км 10/8 600 м
[Sc Ac trans]
+4.5 +3.0 90 +3 +3 1012.8 1000.5
06 15.09 СВ 2 10 км 8/6 600 м
[Cb cap Ci fib]
+8.0 +1.4 63 +6 +8 1012.9 1000.8
09 15.09 В 1 10 км 6/6 600 м
[Cb calv]
+9.4 +2.3 61 1013.2
12 15.09 штиль 0 10 км ясно +7.8 +2.5 69 +7 +7 1014.1 1002.0 +9.6
15 15.09 Ю 1 10 км ясно +2.2 +1.1 92 0 0 1015.2 1002.8
18 15.09 Ю 1 10 км 8/6 600 м
[Sc Ac trans]
+0.5 +0.2 98 -2 -2 1015.1 1002.6
21 15.09 Ю 2 50 км 10/10 600 м
[Cb cap]
+3.3 +2.5 94 0 0 1014.7 1002.3
00 16.09 Ю 4 10 км слаб. ливневой дождь, в посл. час гроза 10/10 300 м
[Cb cap]
+6.3 +6.1 99 +2 +2 1012.9 1000.7 -0.3 11
03 16.09 Ю 3 4000 м слаб. морось 10/10 300 м
[St]
+8.2 +7.8 97 +5 +5 1012.7 1000.6
06 16.09 ЮВ 2 10 км {морось} 10/10 300 м
[St]
+11.2 +10.0 92 +10 +10 1011.8 999.9
09 16.09 Ю 2 10 км 4/0
[Ac trans Ci fib]
+17.0 +11.9 72 +17 +20 1010.6 998.9
12 16.09 Ю 1 10 км ясно +16.6 +13.4 81 +17 +18 1010.1 998.4 +17.0 0.0
15 16.09 Ю 2 50 км ясно +14.4 +12.6 89 +14 +14 1010.6 998.7
18 16.09 Ю 2 4000 м дымка ясно +10.9 +10.5 97 +9 +9 1010.5 998.6
21 16.09 штиль 0 4000 м дымка ясно +9.7 +9.1 96 +9 +9 1009.6 997.6
00 17.09 Ю 3 4000 м дымка 3/3 600 м
[Sc]
+10.2 +9.8 97 +8 +8 1008.7 996.7 +9.0

 

Местоположение метеостанции Ванжиль-Кынак (Томская область, Россия): широта 60.35 долгота 84.08 высота над уровнем моря 99 м.

В архиве по умолчанию представлена погода в Ванжиль-Кынаке за последнюю неделю. Архивные данные за месяц целиком и за предыдущие месяцы, начиная с января 2011 года, Вы можете получить, выбрав интересующий диапазон дат из раскрывающегося списка и нажав кнопку "Ввод!".


*Определитесь, кто Вы:
робот инопланетянин человек

Внимание! Время в таблицах - всемирное. Для получения местного времени необходимо прибавить поправку, которая равна 7 ч.

Смотрите также архив погоды в соседних городах и на ближайших метеорологических станциях:

Погода в Напасе (Томская область, Россия) (131 км)
Погода в Березовке (Томская область, Россия) (140 км)
Погода в Корликах (Ханты-Мансийский АО, Россия) (159 км)
Погода в Ларьяке (Ханты-Мансийский АО, Россия) (224 км)
Погода в Каргасоке (Томская область, Россия) (230 км)
Погода в Колпашево (Томская область, Россия) (235 км)
Погода в Парабели (Томская область, Россия) (235 км)
Погода в Сыме (Красноярский край, Россия) (236 км)
Погода в Степановке (Томская область, Россия) (243 км)
Погода в Усть-Озерном (Томская область, Россия) (263 км)

Пояснения к столбцам:

Ветер - указаны скорость ветра в м/с - средняя за 10 мин, порывы в срок и между сроками (в фигурных скобках) и направление, откуда дует ветер: С - северный, СВ - северо-восточный, В - восточный, ЮВ - юго-восточный, Ю - южный, ЮЗ - юго-западный, З - западный, СЗ - северо-западный.
Видимость - горизонтальная дальность видимости в метрах или километрах. При видимости от 1 до 10 км при отсутствии осадков обычно наблюдается дымка, при ухудшении видимости до 1 км и менее - туман. В сухую погоду видимость может ухудшаться дымом, пылью или мглою.
Явления - указаны атмосферные явления, наблюдавшиеся в срок или в последний час перед сроком; фигурными скобками обозначены явления, наблюдавшиеся между сроками (за 1-3 часа до срока); квадратными скобками обозначены град или гололедные отложения с указанием их диаметра в мм.
Облачность - указаны через наклонную черту общая и нижняя облачность в баллах и высота нижней границы облаков в метрах; квадратными скобками обозначены формы облаков: Ci - перистые, Cs - перисто-слоистые, Cc - перисто-кучевые, Ac - высококучевые, As - высокослоистые, Sc - слоисто-кучевые, Ns - слоисто-дождевые, Cu - кучевые, Cb - кучево-дождевые. Подробнее классификацию облаков см. в Атласе облаков (PDF).
T - Температура воздуха - температура, измеренная на высоте 2 м над землей.
Td - Температура точки росы - температура, при понижении до которой содержащийся в воздухе водяной пар достигнет насыщения.
f - Относительная влажность воздуха - влажноcть воздуха, измеренная на высоте 2 м над землей.
Te - Эффективная температура - температура, которую ощущает одетый по сезону человек в тени. Характеристика душности погоды. При расчете учитывается влияние влажности воздуха и скорости ветра на теплоощущения человека.
Tes - Эффективная температура на солнце - температура, которую ощущает человек, с поправкой на солнечный нагрев. Характеристика знойности погоды. Зависит от высоты солнца над горизонтом, облачности и скорости ветра. Ночью, в пасмурную погоду, а также при ветре 12 м/с и более поправка равна нулю.
P - Атмосферное давление - приведенное к уровню моря атмосферное давление.
Po - Атмосферное давление - измеренное на уровне метеостанции атмосферное давление.
Tmin - Минимальная температура - минимум температуры воздуха на высоте 2 м над землей.
Tmax - Максимальная температура - максимум температуры воздуха на высоте 2 м над землей.
R - Количество осадков - Количество выпавших осадков за период времени, мм. При наведении курсора мыши на число - период времени, за который выпало указанное количество осадков.
R24 - Количество осадков - Количество выпавших осадков за 24 часа, мм.
S - Снежный покров - Высота снежного покрова, см. При наведении курсора мыши на число - состояние снежного покрова и степень покрытия местности в баллах.